Weather in Kozyova

Ukraine / Lviv District     48°57′03″N   23°20′43″E
temp.,
°C
wind,
m/s
gust,
m/s
humid.,
%
clouds,
%
prec.,
mm/h
press.,
hPa
HPBL,
m
7 march, sun
sun723:00−8ssw238421 0.0 103159
02:00−8ssw268511 0.0 1030144
05:00−7ssw312850 0.0 1028406
08:00−6sw614770 0.0 1026738
11:00−2sw713650 0.0 1024873
14:00−1sw8126318 0.0 1021879
17:00−2sw713670 0.0 1019836
20:00−4sw513764 0.0 1019584
8 march, mon
mon823:00−4sw413800 0.0 1019488
02:00−6sw388929 0.0 1018239
05:00−7sw129546 0.0 101627
08:00−6ssw249133 0.0 1017177
11:00−1w248098 0.3 1017597
14:00−2nnw478099 1.9 1018806
17:00−3nnw366838 0.1 10181023
20:00−7n129123 0.1 102129
9 march, tue
tue923:00−7nnw019475 0.0 102222
02:00−7nw119678 0.1 102321
05:00−9nw009763 0.0 102221
08:00−7sse009066 0.0 102338
11:00−2ene226143 0.0 1022918
14:00−1ne225660 0.0 10211182
17:00−3ne3371100 0.0 1020603
20:00−5ene1186100 0.0 102245
10 march, wed
wed1023:00−5ene1191100 0.0 102127
02:00−6ene1192100 0.0 102124
05:00−6nne1192100 0.0 102021
08:00−6nne1189100 0.0 1021166
11:00−3ne237899 0.0 1021640
14:00−2ne4573100 0.1 1021914
17:00−3ne467892 0.2 1021769
20:00−5ne379080 0.2 1023361
11 march, thu
thu1123:00−6ene11950 0.0 102528
02:00−7e01940 0.0 102521
05:00−7s11920 0.0 102421
08:00−6s24840 0.0 1024193
11:00−1ssw595963 0.0 1022771
14:00−1ssw8136481 0.0 1020939
17:00−2ssw81579100 0.0 1018913
20:00−2ssw91786100 0.2 1018881